Regional Weather Roundup
Issued by NWS Midland/Odessa, TX

Skip options and go directly to product.
Home | Oldest Version | Next Version | Current Version | All | Text Only | Save Text | Print | Product List | Glossary On

Skip product version selection by date and time.   
677
ASUS44 KMAF 291310
RWRMAF
MIDLAND AREA WEATHER ROUNDUP
NATIONAL WEATHER SERVICE MIDLAND TX
800 AM CDT MON SEP 29 2014

...IN SOUTHWEST TEXAS AND SOUTHEAST NEW MEXICO...

CITY           SKY/WX    TMP DP  RH WIND       PRES   REMARKS
ALPINE         CLEAR     55  53  94 SW3       30.17S
ANDREWS        FAIR      57  56  95 CALM      30.09R
ARTESIA        NOT AVBL
BIG SPRING     CLEAR     61  56  84 CALM      30.09S
CARLSBAD       PTCLDY    60  57  89 S7        30.05R FOG
DRYDEN           N/A     66  61  84 N6        30.03R
FORT STOCKTON  CLEAR     61  58  90 S8        30.06R
GUAD PASS      MOCLDY    62  54  74 NE10      30.16S
HOBBS          CLEAR     57  57 100 E5        30.10R FOG
MARFA          CLEAR     50  48  93 N3        30.15S
MIDLAND AIRPK  CLEAR     62  57  82 SE5       30.08R
MIDLAND INTL   CLEAR     61  57  87 SE5       30.07R
ODESSA         CLEAR     60  57  89 E8        30.08R
PECOS          CLEAR     58  56  95 E5        30.03S FOG
PRESIDIO       FAIR      65  60  82 CALM      30.04R
SEMINOLE       CLEAR     57  56  97 CALM      30.10S
SNYDER         CLEAR     61  58  88 CALM      30.08S
WINK           CLEAR     63  60  90 E9        30.03S
$$
...OTHER STATIONS IN TEXAS...

CITY           SKY/WX    TMP DP  RH WIND       PRES   REMARKS
ABILENE        CLEAR     62  56  80 SE3       30.06R
AMARILLO       CLEAR     57  54  89 S7        30.12R
AUSTIN         PTCLDY    67  64  90 CALM      29.99R
BROWNSVILLE    CLOUDY    75  75 100 N8        29.88R
CORPUS CHRISTI MOCLDY    74  72  93 NE9       29.91R
DALLAS FTW     PTCLDY    69  62  78 N7        30.02R
DEL RIO        CLEAR     65  63  93 CALM      29.99R
EL PASO        PTCLDY    68  58  70 CALM      30.03S
HOUSTON INT    CLEAR     71  69  93 N7        29.94S
LUBBOCK        PTCLDY    58  55  90 SE3       30.10R
SAN ANGELO     CLEAR     58  55  90 SW3       30.05R
SAN ANTONIO    PTCLDY    73  67  81 N5        29.98S
WACO           CLEAR     64  59  83 CALM      30.01R
WICHITA FALLS  NOT AVBL
$$
...OTHER LOCATIONS IN NEW MEXICO...

CITY           SKY/WX    TMP DP  RH WIND       PRES   REMARKS
ALAMAGORDO     PTCLDY    61  55  82 CALM      30.06S
ALBUQUERQUE    MOCLDY    59  51  75 SE10      30.09R
CANNON AFB     CLEAR     54  53  96 SE6       30.12R
CLOVIS           N/A     54  52  94 S5        30.14S
HOLLOMAN AFB   CLEAR     65  57  74 S9        30.04R
ROSWELL        FOG       55  54  96 CALM      30.07R VSB 3/4
RUIDOSO        CLEAR     54  48  82 SE3       30.21S
SANTA FE       MOCLDY    54  50  86 SE6       30.14R
TRUTH OR CONSE CLEAR     59  52  77 NW5       30.06R
TUCUMCARI      CLEAR     59  53  80 SW8       30.09R
$$

USA.gov is the U.S. government's official web portal to all federal, state and local government web resources and services.